| time (UTC) | temp F | wind direction | speed knots | gust knots | rain 1hr in | rain 24hr in | rain mn in | humidity % | barometer mb |
| 20260906190104 | 73 | 308 | 2.6 | 7.0 | 0.00 | 0.00 | 0.00 | 76 | 1018.1 |
| 20260906184625 | 74 | 297 | 2.6 | 10.4 | 0.00 | 0.00 | 0.00 | 78 | 1018.1 |
| 20260906183057 | 73 | 359 | 2.6 | 7.8 | 0.00 | 0.00 | 0.00 | 78 | 1018.1 |
| 20260906181557 | 73 | 292 | 3.5 | 9.6 | 0.00 | 0.00 | 0.00 | 77 | 1018.2 |
| 20260906180056 | 73 | 323 | 2.6 | 7.0 | 0.00 | 0.00 | 0.00 | 77 | 1018.4 |
| 20260906174556 | 72 | 246 | 2.6 | 8.7 | 0.00 | 0.00 | 0.00 | 77 | 1018.5 |
| 20260906173101 | 72 | 321 | 0.9 | 7.0 | 0.00 | 0.00 | 0.00 | 79 | 1018.5 |
| 20260906171559 | 72 | 336 | 0.9 | 6.1 | 0.00 | 0.00 | 0.00 | 77 | 1018.6 |
| 20260906164557 | 71 | 349 | 1.7 | 5.2 | 0.00 | 0.00 | 0.00 | 78 | 1018.6 |
| 20260906163057 | 71 | 302 | 2.6 | 7.8 | 0.00 | 0.00 | 0.00 | 76 | 1018.5 |
| 20260906161557 | 71 | 309 | 2.6 | 6.1 | 0.00 | 0.00 | 0.00 | 77 | 1018.6 |
| 20260906160057 | 70 | 333 | 2.6 | 6.1 | 0.00 | 0.00 | 0.00 | 78 | 1018.6 |
| 20260906154558 | 70 | 326 | 1.7 | 5.2 | 0.00 | 0.00 | 0.00 | 79 | 1018.4 |
| 20260906153057 | 69 | 317 | 2.6 | 6.1 | 0.00 | 0.00 | 0.00 | 78 | 1018.5 |
| 20260906151557 | 69 | 294 | 0.0 | 5.2 | 0.00 | 0.00 | 0.00 | 80 | 1018.4 |
| 20260906150057 | 69 | 15 | 1.7 | 6.1 | 0.00 | 0.00 | 0.00 | 81 | 1018.3 |
| 20260906144557 | 68 | 3 | 1.7 | 7.0 | 0.00 | 0.00 | 0.00 | 81 | 1018.4 |
| 20260906143059 | 68 | 283 | 0.9 | 3.5 | 0.00 | 0.00 | 0.00 | 82 | 1018.3 |
| 20260906141602 | 68 | 30 | 1.7 | 4.3 | 0.00 | 0.00 | 0.00 | 84 | 1018.4 |
| 20260906134613 | 66 | 24 | 0.0 | 4.3 | 0.00 | 0.00 | 0.00 | 85 | 1018.2 |
| 20260906133058 | 66 | 359 | 0.0 | 2.6 | 0.00 | 0.00 | 0.00 | 88 | 1018.1 |
| 20260906131559 | 64 | 43 | 0.0 | 2.6 | 0.00 | 0.00 | 0.00 | 91 | 1018.2 |
| 20260906130145 | 63 | 25 | 0.9 | 3.5 | 0.00 | 0.00 | 0.00 | 94 | 1018.1 |
| 20260906124608 | 62 | 352 | 0.0 | 3.5 | 0.00 | 0.00 | 0.00 | 95 | 1018.0 |
| 20260906123103 | 61 | 15 | 0.0 | 0.0 | 0.00 | 0.00 | 0.00 | 96 | 1017.7 |
| 20260906121608 | 59 | 15 | 0.0 | 0.0 | 0.00 | 0.00 | 0.00 | 96 | 1017.6 |
| 20260906120107 | 58 | 15 | 0.0 | 0.0 | 0.00 | 0.00 | 0.00 | 96 | 1017.5 |
| 20260906114559 | 57 | 15 | 0.0 | 0.0 | 0.00 | 0.00 | 0.00 | 96 | 1017.4 |
| 20260906113102 | 57 | 15 | 0.0 | 0.0 | 0.00 | 0.00 | 0.00 | 96 | 1017.1 |
| 20260906111558 | 56 | 15 | 0.0 | 0.0 | 0.00 | 0.00 | 0.00 | 96 | 1016.9 |
| 20260906110058 | 57 | 15 | 0.0 | 0.0 | 0.00 | 0.00 | 0.00 | 96 | 1017.0 |
| 20260906104558 | 57 | 15 | 0.0 | 0.0 | 0.00 | 0.00 | 0.00 | 95 | 1016.9 |
| 20260906103100 | 57 | 15 | 0.0 | 0.0 | 0.00 | 0.00 | 0.00 | 95 | 1016.8 |
| 20260906101559 | 57 | 15 | 0.0 | 0.0 | 0.00 | 0.00 | 0.00 | 95 | 1016.7 |
| 20260906100059 | 58 | 15 | 0.0 | 0.0 | 0.00 | 0.00 | 0.00 | 95 | 1016.7 |
| 20260906094559 | 58 | 15 | 0.0 | 0.0 | 0.00 | 0.00 | 0.00 | 95 | 1016.5 |
| 20260906093100 | 58 | 15 | 0.0 | 0.0 | 0.00 | 0.00 | 0.00 | 95 | 1016.3 |
| 20260906091559 | 58 | 15 | 0.0 | 0.0 | 0.00 | 0.00 | 0.00 | 95 | 1016.4 |
| 20260906090059 | 58 | 15 | 0.0 | 0.0 | 0.00 | 0.00 | 0.00 | 94 | 1016.4 |
| 20260906084559 | 58 | 15 | 0.0 | 0.0 | 0.00 | 0.00 | 0.00 | 94 | 1016.3 |
| 20260906083101 | 59 | 15 | 0.0 | 0.0 | 0.00 | 0.00 | 0.00 | 94 | 1016.2 |
| 20260906081559 | 59 | 15 | 0.0 | 0.0 | 0.00 | 0.00 | 0.00 | 94 | 1015.9 |
| 20260906080059 | 60 | 15 | 0.0 | 0.0 | 0.00 | 0.00 | 0.00 | 94 | 1015.8 |
| 20260906074559 | 61 | 15 | 0.0 | 0.0 | 0.00 | 0.00 | 0.00 | 93 | 1015.8 |
| 20260906073100 | 62 | 15 | 0.0 | 0.0 | 0.00 | 0.00 | 0.00 | 94 | 1015.6 |
| 20260906071600 | 62 | 15 | 0.0 | 0.0 | 0.00 | 0.00 | 0.00 | 93 | 1015.8 |
| 20260906070100 | 61 | 15 | 0.0 | 0.0 | 0.00 | 0.00 | 0.00 | 93 | 1015.6 |
| 20260906064559 | 60 | 15 | 0.0 | 0.0 | 0.00 | 0.00 | 0.00 | 93 | 1015.7 |
| 20260906063100 | 60 | 15 | 0.0 | 0.0 | 0.00 | 0.00 | 0.00 | 92 | 1015.8 |
| 20260906061618 | 60 | 15 | 0.0 | 0.0 | 0.00 | 0.00 | 0.00 | 91 | 1015.9 |
| 20260906060109 | 61 | 15 | 0.0 | 0.0 | 0.00 | 0.00 | 0.00 | 91 | 1015.8 |
| 20260906054559 | 61 | 15 | 0.0 | 0.0 | 0.00 | 0.00 | 0.00 | 91 | 1015.6 |
| 20260906053059 | 61 | 15 | 0.0 | 0.0 | 0.00 | 0.00 | 0.00 | 92 | 1015.6 |
| 20260906051607 | 60 | 15 | 0.0 | 0.0 | 0.00 | 0.00 | 0.00 | 91 | 1015.5 |
| 20260906050100 | 60 | 15 | 0.0 | 0.0 | 0.00 | 0.00 | 0.00 | 90 | 1015.6 |
| 20260906044600 | 61 | 15 | 0.0 | 0.0 | 0.00 | 0.00 | 0.00 | 89 | 1015.5 |
| 20260906043105 | 62 | 15 | 0.0 | 1.7 | 0.00 | 0.00 | 0.00 | 88 | 1015.4 |
| 20260906041601 | 63 | 15 | 0.0 | 1.7 | 0.00 | 0.00 | 0.00 | 87 | 1015.3 |
| 20260906040100 | 64 | 15 | 0.9 | 3.5 | 0.00 | 0.00 | 0.00 | 86 | 1015.1 |
| 20260906034606 | 64 | 14 | 0.0 | 2.6 | 0.00 | 0.00 | 0.00 | 86 | 1015.1 |
| 20260906033101 | 64 | 14 | 0.0 | 1.7 | 0.00 | 0.00 | 0.00 | 85 | 1014.9 |
| 20260906031600 | 65 | 14 | 0.9 | 2.6 | 0.00 | 0.00 | 0.00 | 84 | 1015.0 |
| 20260906030101 | 65 | 14 | 0.0 | 4.3 | 0.00 | 0.00 | 0.00 | 84 | 1015.0 |
| 20260906024601 | 66 | 360 | 0.0 | 3.5 | 0.00 | 0.00 | 0.00 | 83 | 1014.9 |
| 20260906023108 | 67 | 360 | 0.9 | 6.1 | 0.00 | 0.00 | 0.00 | 84 | 1015.0 |
| 20260906021601 | 67 | 44 | 0.9 | 5.2 | 0.00 | 0.00 | 0.00 | 84 | 1015.0 |
| 20260906014607 | 67 | 1 | 0.0 | 5.2 | 0.00 | 0.00 | 0.00 | 86 | 1014.7 |
| 20260906013001 | 67 | 329 | 0.9 | 4.3 | 0.00 | 0.00 | 0.00 | 87 | 1014.5 |
| 20260906011501 | 67 | 359 | 0.0 | 6.1 | 0.00 | 0.00 | 0.00 | 86 | 1014.5 |
| 20260906010003 | 67 | 351 | 1.7 | 7.0 | 0.00 | 0.00 | 0.00 | 86 | 1014.4 |
| 20260906004501 | 67 | 354 | 1.7 | 7.8 | 0.00 | 0.00 | 0.00 | 85 | 1014.3 |
| 20260906003003 | 67 | 343 | 1.7 | 6.1 | 0.00 | 0.00 | 0.00 | 84 | 1014.5 |
| 20260906001501 | 67 | 315 | 0.9 | 7.0 | 0.00 | 0.00 | 0.00 | 83 | 1014.6 |
| 20260906000001 | 67 | 316 | 1.7 | 6.1 | 0.00 | 0.00 | 0.00 | 81 | 1014.4 |
| 20260905234500 | 67 | 337 | 1.7 | 9.6 | 0.00 | 0.00 | 0.00 | 79 | 1014.5 |
| 20260905233002 | 68 | 326 | 1.7 | 7.8 | 0.00 | 0.00 | 0.00 | 77 | 1014.5 |
| 20260905231501 | 68 | 5 | 2.6 | 8.7 | 0.00 | 0.00 | 0.00 | 75 | 1014.6 |
| 20260905230004 | 68 | 262 | 2.6 | 7.0 | 0.00 | 0.00 | 0.00 | 76 | 1014.7 |
| 20260905224503 | 68 | 326 | 2.6 | 8.7 | 0.00 | 0.00 | 0.00 | 74 | 1014.5 |
| 20260905223003 | 69 | 335 | 1.7 | 9.6 | 0.00 | 0.00 | 0.00 | 73 | 1014.4 |
| 20260905221501 | 69 | 335 | 2.6 | 8.7 | 0.00 | 0.00 | 0.00 | 70 | 1014.5 |
| 20260905220004 | 70 | 316 | 2.6 | 9.6 | 0.00 | 0.00 | 0.00 | 68 | 1014.4 |
| 20260905214502 | 70 | 360 | 1.7 | 7.8 | 0.00 | 0.00 | 0.00 | 70 | 1014.4 |
| 20260905213004 | 71 | 11 | 1.7 | 6.1 | 0.00 | 0.00 | 0.00 | 71 | 1014.3 |
| 20260905211503 | 71 | 1 | 2.6 | 9.6 | 0.00 | 0.00 | 0.00 | 72 | 1014.4 |
| 20260905210004 | 71 | 24 | 3.5 | 8.7 | 0.00 | 0.00 | 0.00 | 73 | 1014.3 |
| 20260905204502 | 72 | 333 | 1.7 | 9.6 | 0.00 | 0.00 | 0.00 | 73 | 1014.2 |
| 20260905203003 | 72 | 355 | 3.5 | 8.7 | 0.00 | 0.00 | 0.00 | 73 | 1014.1 |
| 20260905201503 | 73 | 311 | 1.7 | 7.0 | 0.00 | 0.00 | 0.00 | 75 | 1014.2 |
| 20260905200004 | 73 | 326 | 2.6 | 7.0 | 0.00 | 0.00 | 0.00 | 76 | 1014.3 |
| 20260905194503 | 73 | 311 | 3.5 | 9.6 | 0.00 | 0.00 | 0.00 | 77 | 1014.2 |
| 20260905193002 | 74 | 359 | 2.6 | 7.0 | 0.00 | 0.00 | 0.00 | 78 | 1014.3 |
| 20260905191502 | 74 | 272 | 1.7 | 8.7 | 0.00 | 0.00 | 0.00 | 78 | 1014.2 |